Simultaneous Nadir Overpasses (SNOs) Predictions

Prediction of SNOs between GOES-16 and AQUA Satellite Orbit:

Table of predicted SNOs for the next 14.0 days since TLE Epoch: 7/5/2019
Index Date Time (GOES-16) GOES-16 Lat,Lon AQUA Lat,Lon Distance(km) Time Diff (sec)
1 07/07/2019 06:26:05 -0.01, -75.20 -0.63, -72.39 320.21 80
2 07/07/2019 18:44:49 0.01, -75.20 -0.47, -77.58 269.94 80
3 07/09/2019 18:35:17 0.01, -75.21 0.16, -74.62 68.07 80
4 07/11/2019 18:23:05 0.01, -75.23 0.79, -71.66 406.46 80
5 07/12/2019 06:41:40 -0.01, -75.24 0.34, -76.81 179.31 80
6 07/14/2019 06:29:28 -0.01, -75.26 -0.29, -73.86 159.74 80
7 07/14/2019 18:50:51 0.02, -75.27 -0.80, -79.05 429.85 80
8 07/16/2019 06:19:56 -0.01, -75.29 -0.92, -70.90 499.33 80
9 07/16/2019 18:38:40 0.01, -75.30 -0.15, -76.09 90.00 80
10 07/18/2019 18:29:08 0.01, -75.34 0.49, -73.14 250.62 80
11 07/19/2019 06:47:43 -0.01, -75.35 0.60, -78.30 334.63 80




NCC Satellite Simultaneous Nadir Overpasses (SNOs) Prediction Service
